sat.trackr.live / text

‹ back to catalog

STARLINK-31475

NORAD 59310 · 2024-056Q

PAYLOAD ACTIVE UNKNOWN

§ Identity

Operator
Country
US
Launch date
2024-03-24
Launch site
AFETR
Launch vehicle
Mass (kg)
RCS (m²)

Purposes: comms

External: N2YO · Heavens-Above · Gunter

§ Orbital elements

Epoch: 2026-05-25T01:47:18.066624Z

Period
94.27 min
Inclination
43.0019°
Eccentricity
0.0001119
Mean motion
15.27577171 rev/d
Perigee alt
482.3 km
Apogee alt
483.8 km
Semi-major
6,861.2 km
B*
3.6041e-5
RAAN
156.1092°
Arg perigee
276.2539°
Mean anomaly
83.8185°
Rev number
12,299

§ Raw data

STARLINK-314751 59310U 24056Q   26145.07451466  .00000730  00000+0  36041-4 0  99932 59310  43.0019 156.1092 0001119 276.2539  83.8185 15.27577171122996

JSON: /api/v1/satellites/59310 · /tle

For live sub-satellite position, see the globe view (requires WebGL).

§ Visibility from observer

Set your observer location to see the next 7 days of passes ≥ 10°. The values pass through the URL so the page stays shareable.

No JS? Fill the form by hand. The geolocation button needs JavaScript.